Station PSTN6 - 9063028 - Sturgeon Point, NY Image indicating link to RSS feed of recent meteorological observations for station PSTN6


Conditions at PSTN6 as of
(8:18 pm EDT on 06/22/2024)
0018 GMT on 06/23/2024:
     

Click on the graph icon in the table below to see a time series plot of the last five days of that observation.

5-day plot - Atmospheric Pressure Atmospheric Pressure (PRES):29.83 in
5-day plot - Air Temperature Air Temperature (ATMP): 81.7 °F
NOS Water Level Observation Network Water Level
Previous observations
TIME
(EDT)
5-day plot - Wind Direction
WDIR
 
5-day plot - Wind Speed
WSPD
kts
5-day plot - Wind Gust
GST
kts
5-day plot - Wave Height
WVHT
ft
5-day plot - Dominant Wave Period
DPD
sec
5-day plot - Average Wave Period
APD
sec
5-day plot - Mean Wave Direction
MWD
 
5-day plot - Atmospheric Pressure
PRES
in
5-day plot - Pressure Tendency
PTDY
in
5-day plot - Air Temperature
ATMP
°F
5-day plot - Water Temperature
WTMP
°F
5-day plot - Dew Point
DEWP
°F
5-day plot - Salinity
SAL
psu
5-day plot - Visibility
VIS
nmi
5-day plot - Tide (above MLLW)
TIDE
ft
2024-06-22 08:12 pm-------29.83- 81.3-----
2024-06-22 08:06 pm-------29.83- 81.1-----
2024-06-22 08:00 pm-------29.84-0.04 80.8-----
2024-06-22 07:54 pm-------29.84- 80.4-----
2024-06-22 07:48 pm-------29.84- 80.2-----
2024-06-22 07:42 pm-------29.84- 79.7-----
2024-06-22 07:36 pm-------29.85- 79.5-----
2024-06-22 07:30 pm-------29.85- 79.5-----
2024-06-22 07:24 pm-------29.85- 79.3-----
2024-06-22 07:18 pm-------29.85- 79.9-----
2024-06-22 07:12 pm-------29.85- 80.1-----
2024-06-22 07:06 pm-------29.85- 79.9-----
2024-06-22 07:00 pm-------29.85-0.05------
2024-06-22 06:54 pm-------29.85-------
2024-06-22 06:48 pm-------29.85- 80.1-----
2024-06-22 06:42 pm-------29.85- 80.1-----
2024-06-22 06:36 pm-------29.85- 79.9-----
2024-06-22 06:30 pm-------29.85- 79.9-----
2024-06-22 06:24 pm-------29.86- 79.9-----
2024-06-22 06:18 pm-------29.86- 79.9-----
2024-06-22 06:12 pm-------29.86- 79.7-----
2024-06-22 06:06 pm-------29.86- 79.5-----
2024-06-22 06:00 pm-------29.86-0.04 79.3-----
2024-06-22 05:54 pm-------29.86- 79.2-----
2024-06-22 05:48 pm-------29.86- 79.7-----
2024-06-22 05:42 pm-------29.87- 79.7-----
2024-06-22 05:36 pm-------29.87- 79.7-----
2024-06-22 05:30 pm-------29.87-------
2024-06-22 05:24 pm-------29.87-------
2024-06-22 05:18 pm-------29.88- 79.9-----
2024-06-22 05:12 pm-------29.88- 79.7-----
2024-06-22 05:06 pm-------29.88- 79.2-----
2024-06-22 05:00 pm-------29.88-0.06 79.2-----
2024-06-22 04:54 pm-------29.88- 79.0-----
2024-06-22 04:48 pm-------29.89-------
2024-06-22 04:42 pm-------29.89-------
2024-06-22 04:36 pm-------29.90-------
2024-06-22 04:30 pm--------- 78.8-----
2024-06-22 04:24 pm--------- 78.8-----
2024-06-22 04:18 pm-------29.90-------
2024-06-22 04:12 pm-------29.90-------
2024-06-22 04:06 pm-------29.90-------
2024-06-22 04:00 pm-------29.90-0.07 80.4-----
2024-06-22 03:54 pm-------29.90- 80.8-----
2024-06-22 03:48 pm-------29.90- 81.0-----
2024-06-22 03:42 pm-------29.90- 81.0-----
2024-06-22 03:36 pm-------29.90- 81.3-----
2024-06-22 03:30 pm-------29.90- 81.3-----
2024-06-22 03:24 pm-------29.90- 81.5-----
2024-06-22 03:18 pm-------29.90- 81.3-----
2024-06-22 03:12 pm-------29.91- 81.5-----
2024-06-22 03:06 pm-------29.91- 81.3-----
2024-06-22 03:00 pm-------29.91-0.08 81.3-----
2024-06-22 02:54 pm-------29.91- 81.5-----
2024-06-22 02:48 pm-------29.91- 81.5-----
2024-06-22 02:42 pm-------29.92- 81.3-----
2024-06-22 02:36 pm-------29.92- 81.3-----
2024-06-22 02:30 pm-------29.93- 81.0-----
2024-06-22 02:24 pm-------29.93- 80.4-----
2024-06-22 02:18 pm-------29.93- 80.8-----
2024-06-22 02:12 pm-------29.93- 80.8-----
2024-06-22 02:06 pm-------29.93- 81.0-----
2024-06-22 02:00 pm-------29.94-0.06 80.4-----
2024-06-22 01:54 pm-------29.94- 80.1-----
2024-06-22 01:48 pm-------29.94- 80.1-----
2024-06-22 01:42 pm-------29.94- 80.4-----
2024-06-22 01:36 pm-------29.95- 80.6-----
2024-06-22 01:30 pm-------29.95- 80.4-----
2024-06-22 01:24 pm-------29.95- 81.0-----
2024-06-22 01:18 pm-------29.96- 80.6-----
2024-06-22 01:12 pm-------29.96- 81.3-----
2024-06-22 01:06 pm-------29.97- 81.1-----
2024-06-22 01:00 pm-------29.97-0.04 80.6-----
2024-06-22 12:54 pm-------29.97- 81.0-----
2024-06-22 12:48 pm-------29.97- 80.8-----
2024-06-22 12:42 pm-------29.97- 81.7-----
2024-06-22 12:36 pm-------29.98- 80.8-----
2024-06-22 12:30 pm-------29.98- 79.7-----
2024-06-22 12:24 pm-------29.98- 79.7-----
2024-06-22 12:18 pm-------29.98- 81.1-----
2024-06-22 12:12 pm-------29.98- 81.0-----
2024-06-22 12:06 pm-------29.98- 80.1-----
2024-06-22 12:00 pm-------29.98-0.03 80.4-----
2024-06-22 11:54 am-------29.98- 81.0-----
2024-06-22 11:48 am-------29.98-------
2024-06-22 11:42 am-------29.98-------
2024-06-22 11:36 am-------29.99-------
2024-06-22 11:30 am-------29.99- 80.6-----
2024-06-22 11:24 am-------29.99- 80.1-----
2024-06-22 11:18 am-------29.99- 79.7-----
2024-06-22 11:12 am-------30.00- 79.7-----
2024-06-22 11:06 am-------30.00- 79.5-----
2024-06-22 11:00 am-------30.00-0.01 79.7-----
2024-06-22 10:54 am-------30.00- 79.0-----
2024-06-22 10:48 am-------30.00- 79.0-----
2024-06-22 10:42 am-------30.00- 79.5-----
2024-06-22 10:36 am-------30.00- 79.0-----
2024-06-22 10:30 am-------30.00- 79.5-----
2024-06-22 10:24 am-------30.00- 79.5-----
2024-06-22 10:18 am--------- 79.7-----
2024-06-22 10:12 am--------- 79.0-----
2024-06-22 10:06 am--------- 78.3-----
2024-06-22 10:00 am-------30.01-0.01------
2024-06-22 09:54 am-------30.01-------
2024-06-22 09:48 am-------30.01- 76.6-----
2024-06-22 09:42 am-------30.01- 76.5-----
2024-06-22 09:36 am-------30.02- 77.2-----
2024-06-22 09:30 am-------30.02- 77.0-----
2024-06-22 09:24 am-------30.02- 77.0-----
2024-06-22 09:18 am-------30.02- 77.0-----
2024-06-22 09:12 am-------30.01- 77.5-----
2024-06-22 09:06 am-------30.01- 77.5-----
2024-06-22 09:00 am-------30.01-0.01 77.5-----
2024-06-22 08:54 am-------30.01- 77.7-----
2024-06-22 08:48 am-------30.01-------
2024-06-22 08:42 am-------30.01-------
2024-06-22 08:36 am-------30.01-------
2024-06-22 08:30 am-------30.01-------
2024-06-22 08:24 am-------30.01-------
2024-06-22 08:18 am-------30.01- 77.9-----
2024-06-22 08:12 am-------30.01- 77.9-----
2024-06-22 08:06 am-------30.01- 77.9-----
2024-06-22 08:00 am-------30.01-0.01------
2024-06-22 07:54 am-------30.01-------
2024-06-22 07:48 am-------30.02- 76.8-----
2024-06-22 07:42 am-------30.02- 76.5-----
2024-06-22 07:36 am-------30.02- 76.3-----
2024-06-22 07:30 am-------30.02- 76.8-----
2024-06-22 07:24 am-------30.02- 75.7-----
2024-06-22 07:18 am-------30.02-------
2024-06-22 07:12 am-------30.02-------
2024-06-22 07:06 am-------30.02-------
2024-06-22 07:00 am-------30.02-0.01 74.3-----
2024-06-22 06:54 am-------30.02- 74.7-----
2024-06-22 06:48 am-------30.02- 74.8-----
2024-06-22 06:42 am-------30.03- 74.8-----
2024-06-22 06:36 am-------30.03- 74.5-----
2024-06-22 06:30 am-------30.03- 74.1-----
2024-06-22 06:24 am-------30.03- 73.9-----
2024-06-22 06:18 am-------30.03- 73.9-----
2024-06-22 06:12 am-------30.03- 73.9-----
2024-06-22 06:06 am-------30.03- 74.1-----
2024-06-22 06:00 am-------30.03+0.00 73.8-----
2024-06-22 05:54 am-------30.03- 73.4-----
2024-06-22 05:48 am-------30.03-------
2024-06-22 05:42 am-------30.03-------
2024-06-22 05:36 am-------30.02-------
2024-06-22 05:30 am-------30.03- 72.9-----
2024-06-22 05:24 am-------30.02- 72.7-----
2024-06-22 05:18 am-------30.03- 72.7-----
2024-06-22 05:12 am-------30.03- 72.9-----
2024-06-22 05:06 am-------30.03- 72.9-----
2024-06-22 05:00 am-------30.03-0.01 73.4-----
2024-06-22 04:54 am-------30.03- 74.1-----
2024-06-22 04:48 am-------30.03- 74.1-----
2024-06-22 04:42 am-------30.03- 73.9-----
2024-06-22 04:36 am-------30.03- 73.9-----
2024-06-22 04:30 am-------30.03-------
2024-06-22 04:24 am-------30.03-------
2024-06-22 04:18 am-------30.03-------
2024-06-22 04:12 am-------30.03-------
2024-06-22 04:06 am-------30.03-------
2024-06-22 04:00 am-------30.03-0.03------
2024-06-22 03:54 am-------30.03-------
2024-06-22 03:48 am-------30.03- 73.0-----
2024-06-22 03:42 am-------30.03- 73.0-----
2024-06-22 03:36 am-------30.03- 73.0-----
2024-06-22 03:30 am-------30.03- 73.0-----
2024-06-22 03:24 am-------30.03- 72.9-----
2024-06-22 03:18 am-------30.03- 72.9-----
2024-06-22 03:12 am-------30.02- 72.9-----
2024-06-22 03:06 am-------30.02- 72.9-----
2024-06-22 03:00 am-------30.03-0.05 73.0-----
2024-06-22 02:54 am-------30.03- 73.2-----
2024-06-22 02:48 am-------30.03- 73.4-----
2024-06-22 02:42 am-------30.03- 73.2-----
2024-06-22 02:36 am-------30.03- 73.4-----
2024-06-22 02:30 am-------30.03- 73.4-----
2024-06-22 02:24 am-------30.03- 73.6-----
2024-06-22 02:18 am-------30.03- 73.6-----
2024-06-22 02:12 am-------30.03- 73.6-----
2024-06-22 02:06 am-------30.03- 73.6-----
2024-06-22 02:00 am-------30.03-0.04 73.8-----
2024-06-22 01:54 am-------30.03- 73.8-----
2024-06-22 01:48 am-------30.04- 73.8-----
2024-06-22 01:42 am-------30.04- 73.8-----
2024-06-22 01:36 am-------30.04- 74.1-----
2024-06-22 01:30 am-------30.05- 74.1-----
2024-06-22 01:24 am-------30.05- 74.1-----
2024-06-22 01:18 am-------30.05- 74.1-----
2024-06-22 01:12 am-------30.05- 74.5-----
2024-06-22 01:06 am-------30.06- 74.5-----
2024-06-22 01:00 am-------30.06-0.02 74.7-----
2024-06-22 12:54 am-------30.06- 74.7-----
2024-06-22 12:48 am-------30.06- 75.0-----
2024-06-22 12:42 am-------30.06- 75.2-----
2024-06-22 12:36 am-------30.06- 75.6-----
2024-06-22 12:30 am-------30.06- 75.6-----
2024-06-22 12:24 am-------30.07- 75.2-----
2024-06-22 12:18 am-------30.07- 74.5-----
2024-06-22 12:12 am-------30.07- 74.3-----
2024-06-22 12:06 am-------30.07- 74.3-----
2024-06-22 12:00 am-------30.07+0.00 74.5-----
2024-06-21 11:54 pm-------30.07- 75.0-----
2024-06-21 11:48 pm-------30.07- 75.2-----
2024-06-21 11:42 pm-------30.07- 75.0-----
2024-06-21 11:36 pm-------30.08- 75.4-----
2024-06-21 11:30 pm-------30.08- 75.9-----
2024-06-21 11:24 pm-------30.08- 75.9-----
2024-06-21 11:18 pm-------30.08- 75.9-----
2024-06-21 11:12 pm-------30.08- 75.7-----
2024-06-21 11:06 pm-------30.08- 75.7-----
2024-06-21 11:00 pm-------30.08- 75.9-----
2024-06-21 10:54 pm-------30.08- 75.9-----
2024-06-21 10:48 pm-------30.07- 75.9-----
2024-06-21 10:42 pm-------30.08- 76.1-----
2024-06-21 10:36 pm-------30.08- 76.1-----
2024-06-21 10:30 pm-------30.08- 76.5-----
2024-06-21 10:24 pm-------30.08- 76.6-----
2024-06-21 10:18 pm-------30.08- 76.6-----
2024-06-21 10:12 pm-------30.08- 76.6-----
2024-06-21 10:06 pm-------30.08- 76.6-----
2024-06-21 10:00 pm-------30.08+0.00 76.5-----
2024-06-21 09:54 pm-------30.08- 76.3-----
2024-06-21 09:48 pm-------30.07- 76.1-----
2024-06-21 09:42 pm-------30.07- 76.3-----
2024-06-21 09:36 pm-------30.07- 76.3-----
2024-06-21 09:30 pm-------30.07- 76.3-----
2024-06-21 09:24 pm-------30.07- 76.5-----
2024-06-21 09:18 pm-------30.07-------
2024-06-21 09:12 pm-------30.07-------
2024-06-21 09:06 pm-------30.07-------
2024-06-21 09:00 pm-------30.07-0.01 77.0-----
2024-06-21 08:54 pm-------30.07- 77.0-----
2024-06-21 08:48 pm-------30.08- 77.2-----
2024-06-21 08:42 pm-------30.07- 77.5-----
2024-06-21 08:36 pm-------30.07- 77.5-----
2024-06-21 08:30 pm-------30.07- 77.4-----
2024-06-21 08:24 pm-------30.08- 77.4-----
2024-06-21 08:18 pm-------30.08- 77.4-----
2024-06-21 08:12 pm-------30.08- 77.4-----
2024-06-21 08:06 pm-------30.08- 77.7-----
2024-06-21 08:00 pm--------- 78.8-----
2024-06-21 07:54 pm--------- 78.8-----